STARLINK-1231, 45212

Orbit data source: Space-Track

STARLINK-1231, 45212 is a payload satellite owned by SpaceX/Seattle (US) in LEO that was launched on Mon, 17 Feb 2020 UTC via an FALCON 9 launch vehicle from the Air Force Eastern Test Range (AFETR). Payload-class satellites include a variety of spacecraft equipped with specific instruments for various scientific and technological missions. These include communications satellites like Starlink; space stations such as the ISS; scientific satellites like the Hubble; Earth observation satellites from companies like Planet Labs, Umbra, and HawkEye 360; GPS; miniature CubeSats for education and research; and military/defense satellites.

Loading next visibility...
Identifier
45212, 2020-012AL
Orbit
LEO
Country
Flag of USUS
Related business
Manufacturer
SpaceX/Seattle
Mission
Partially operational Commercial Communications
Bus & Motor
STARLINK, Unknown motor
Mass
260 kg wet, ~248 kg dry
Launch date (UTC)
2020-02-17 (6 years ago)
Launch vehicle
FALCON 9
Launch site
Air Force Eastern Test Range (AFETR)
Object type
Payload
Rocket body
Debris
Shape & HBR
Box + 1 Pan, 10.1 m
Radar Cross Section
13.562 m², Large (>1 m²)

Expand to show TLE details & history
Last TLE update: 1 day ago

TLE from 1 day ago
0 STARLINK-1231
1 45212U 20012AL  25352.50141499  .00011793  00000-0  63252-3 0  9991
2 45212  53.0508  26.8996 0002118 176.3741 183.7267 15.15382536322895
Epoch: 2025-12-18T12:02Z
TLE epoch observation values (Epoch: 2025-12-18T12:02:02.255Z)
Latitude
-0.00005°
Longitude
119.03415°
Altitude
522.158 km
Speed
7.603 km/s
True Right ascension
01h 47m 35s
True Declination
0° 00' 00"
Sunlit
Object was in full shadow at epoch
Visualization orbit readout
Latitude
Unknown
Longitude
Unknown
Altitude
Unknown
Speed
Unknown
Apparent Right ascension
Unknown
Apparent Declination
Unknown
Sunlit
N/A
Visualization observer readout
Local Sidereal Time
14:19:17
Azimuth
Unknown
Elevation
Unknown
Doppler factor
Unknown
Orbital elements
Apogee altitude
521.551 km
Perigee altitude
518.629 km
Semi-major axis
6,898.227 km
Eccentricity
0.00021
Inclination
53.0508°
RAAN
26.8996°
Arg. of periapsis
176.3741°
True anomaly
183.72512°
Mean anomaly
183.7267°
Eccentric anomaly
183.72591°
Mean motion
3.78824 °/min
Orbital period
95.03 mins
BSTAR
0.00063252
Loading maneuver chart data...
Computing Atmospheric mass density...

Documentation

Showing up to 5 results
|